Location: Asheville, NC
(35.6000°N, 82.5500°W)
Time: 01:30:17
(UTC-05:00)

Vanguard 1 Rocket - Pass Details

Date: 09 February 2018
Orbit: 655 x 4222 km, 34.3° (Epoch: 23 February)

Event Time Altitude Azimuth Distance (km) Brightness Sun altitude
Rises 01:27:37 0° 234° (SW) 7,844 - -66.9°
Reaches altitude 10° 01:32:37 10° 232° (SW) 7,082 - -66.4°
Maximum altitude 01:58:21 68° 155° (SSE) 4,242 - -63.3°
Exits shadow 02:05:59 52° 98° (E) 4,342 10.6 -62.2°
Drops below altitude 10° 02:18:44 10° 78° (ENE) 5,848 11.8 -60.3°
Sets 02:22:22 0° 76° (ENE) 6,493 12.2 -59.7°
